This is the latest recevied weather packets stored in our database for station/object WX7EM. If no packets are shown the sender has not sent any weather packets the latest 1 day(s).
| Time | Temp. | Humidity | Pressure | Rain* | Wind** | Luminosity | Snow |
|---|---|---|---|---|---|---|---|
| 1778078702 | 11.67° C | 97% | 1020 hPa | 0 mm | - | 81 W/m² | - |
| 1778077190 | 11.11° C | 97% | 1019.8 hPa | 0 mm | - | 47 W/m² | - |
| 1778076888 | 11.11° C | 98% | 1019.9 hPa | 0 mm | - | 39 W/m² | - |
| 1778076283 | 10.56° C | 98% | 1020 hPa | 0 mm | - | 38 W/m² | - |
| 1778075677 | 10.56° C | 98% | 1019.8 hPa | 0 mm | - | 31 W/m² | - |
| 1778075373 | 10.56° C | 98% | 1019.7 hPa | 0 mm | - | 23 W/m² | - |
| 1778074160 | 11.11° C | 99% | 1019.6 hPa | 0 mm | - | 13 W/m² | - |
| 1778073857 | 11.11° C | 99% | 1019.6 hPa | 0 mm | - | 9 W/m² | - |
| 1778073251 | 10.56° C | 99% | 1019.5 hPa | 0 mm | - | 5 W/m² | - |
| 1778072644 | 10.56° C | 99% | 1019.6 hPa | 0 mm | - | 2 W/m² | - |
| 1778071435 | 10° C | 99% | 1019.4 hPa | 0 mm | - | 0 W/m² | - |
| 1778071133 | 10° C | 99% | 1019.4 hPa | 0 mm | - | 0 W/m² | - |
| 1778070831 | 10° C | 99% | 1019.5 hPa | 0 mm | - | 0 W/m² | - |
| 1778069620 | 9.44° C | 99% | 1019.1 hPa | 0 mm | - | 0 W/m² | - |
| 1778069317 | 9.44° C | 99% | 1018.9 hPa | 0 mm | - | 0 W/m² | - |
| 1778069015 | 8.89° C | 99% | 1019 hPa | 0 mm | - | 0 W/m² | - |
| 1778068410 | 8.89° C | 99% | 1018.7 hPa | 0 mm | - | 0 W/m² | - |
| 1778066897 | 8.89° C | 99% | 1018.3 hPa | 0 mm | - | 0 W/m² | - |
| 1778066292 | 8.89° C | 99% | 1018.2 hPa | 0 mm | - | 0 W/m² | - |
| 1778064475 | 8.89° C | 99% | 1017.9 hPa | 0 mm | - | 0 W/m² | - |
| 1778063870 | 8.89° C | 99% | 1017.8 hPa | 0 mm | - | 0 W/m² | - |
| 1778063567 | 8.89° C | 99% | 1017.6 hPa | 0 mm | - | 0 W/m² | - |
| 1778062054 | 8.89° C | 99% | 1017.5 hPa | 0 mm | - | 0 W/m² | - |
| 1778061450 | 8.89° C | 99% | 1017.4 hPa | 0 mm | - | 0 W/m² | - |
| 1778060240 | 8.89° C | 99% | 1017.3 hPa | 0 mm | - | 0 W/m² | - |
* Rain latest hour (hover to see other rain measurements)
** Current wind speed in m/s (hover to see current wind gust speed)